Location: Cherry Springs State Park
(41.6616°N, 77.8240°W)
Time: 09:41:24
(UTC-04:00)

Daily predictions for brighter satellites

Satellite Brightness Start Highest point End
(mag) Time Altitude Azimuth Time Altitude Azimuth Time Altitude Azimuth
Cosmos 1238 Rocket 4.5 20:57:38 10° SSE 21:03:58 46° E 21:10:02 10° NNE
Cosmos 1536 Rocket 3.8 21:00:14 10° SSW 21:04:33 76° W 21:08:53 10° N
OAO 2 Rocket 3.9 21:00:31 10° WSW 21:05:04 38° S 21:09:40 10° ESE
NOSS 2-2 (C) 4.4 21:01:24 10° SW 21:05:21 55° NW 21:09:56 10° NNE
Aureole 3 Rocket 3.6 20:59:21 10° S 21:05:22 61° E 21:09:42 10° NNE
ISS -3.6 21:03:46 10° WSW 21:07:03 80° NW 21:10:22 10° NE
SJ-11-01 4.4 21:02:33 10° SSE 21:07:10 61° ENE 21:11:50 10° N
Aureole 1 Rocket 2.2 21:05:02 10° S 21:08:14 57° ESE 21:11:10 10° NNE
Cosmos 1441 Rocket 3.4 21:07:44 10° S 21:11:19 46° E 21:14:54 10° NNE
Meteor 1-19 Rocket 4.3 21:07:32 10° S 21:13:21 84° E 21:19:05 10° NNE
ASTEX 1 3.9 21:09:30 10° SSE 21:14:06 42° ENE 21:18:42 10° N
Cosmos 1025 Rocket 3.5 21:13:54 10° SSE 21:17:53 40° E 21:21:53 10° NNE
Cosmos 2112 Rocket 4.0 21:13:41 10° SSW 21:18:55 85° ESE 21:24:08 10° NNE
USA 186 3.3 21:16:14 10° SSW 21:19:11 35° W 21:22:03 10° NNW
Lacrosse 5 rocket 4.4 21:18:02 10° NNW 21:19:41 12° N 21:21:19 10° NNE
Okean 2 4.1 21:20:15 10° SSE 21:23:57 34° E 21:27:41 10° NNE
Cosmos 1624 Rocket 4.5 21:20:29 10° N 21:25:35 47° ENE 21:30:27 11° SE
Cosmos 2074 Rocket 4.2 21:24:03 10° N 21:30:19 79° W 21:36:35 10° S
Cosmos 2082 Rocket 3.4 21:26:37 10° SSE 21:30:53 22° E 21:35:10 10° NE
COSMOS 2406 4.0 21:25:35 10° SW 21:31:13 58° WNW 21:36:51 10° NNE
SL-27 R/B 3.0 21:28:27 10° SSW 21:32:05 66° WNW 21:35:44 10° NNE
H-2A R/B 3.6 21:28:43 10° ESE 21:32:16 20° ENE 21:35:53 10° NNE
Cosmos 2184 Rocket 4.2 21:28:25 10° N 21:34:47 76° W 21:41:01 10° S
Cosmos 1610 Rocket 4.5 21:29:12 10° N 21:35:29 78° E 21:41:40 10° S
Cosmos 2058 Rocket 4.3 21:32:25 10° NNE 21:36:08 26° ENE 21:39:00 14° ESE
Cosmos 1743 4.1 21:32:38 10° NNW 21:36:17 39° W 21:39:55 10° SSW
PSLV R/B 3.7 21:33:44 10° W 21:36:42 40° SSW 21:38:47 17° SE
Meteor 1-15 Rocket 4.3 21:31:45 10° N 21:37:18 62° ENE 21:42:38 11° SSE
MOS 1-B Rocket 4.4 21:32:35 11° SE 21:37:58 52° ENE 21:44:19 10° N
SAR-Lupe-4 4.3 21:37:19 10° S 21:40:50 51° W 21:44:21 10° NNW
Cosmos 1680 Rocket 4.4 21:36:07 10° SW 21:41:12 52° WNW 21:46:18 10° N
Cosmos 2056 Rocket 3.6 21:40:00 10° NNW 21:45:08 64° ENE 21:49:17 15° SSE
YAOGAN 6 2.6 21:43:16 10° S 21:46:45 74° WSW 21:50:16 10° NNW
Envisat 4.0 21:43:05 10° S 21:47:55 44° W 21:52:47 10° NNW
Cosmos 1697 Rocket 4.0 21:44:50 10° N 21:49:35 27° NE 21:53:32 13° ESE
Resurs 01 Rocket 4.3 21:48:57 10° SW 21:51:34 15° W 21:54:11 10° NW
Cosmos 2369 4.1 21:46:15 10° NNW 21:51:52 53° ENE 21:56:03 18° SE
Cosmos 839 Rocket 4.5 21:46:28 10° NNW 21:53:00 67° ENE 21:59:18 17° SE
Cosmos 1656 4.4 21:47:58 10° N 21:53:04 38° ENE 21:56:49 17° ESE
Cosmos 1666 4.3 21:52:53 10° NNW 21:56:16 32° W 21:59:37 10° SSW
H-2A R/B 4.2 21:54:53 11° E 21:57:12 16° ENE 21:59:52 10° NNE
NOSS 8 (F) 4.4 21:55:46 10° SSW 21:59:15 62° ESE 22:02:48 10° NE
Tiangong 2 1.3 21:58:14 10° W 22:01:25 71° N 22:04:04 14° E
Meteor 2-19 Rocket 4.4 21:58:02 10° N 22:04:11 77° E 22:09:15 16° SSE
Cosmos 1833 Rocket 3.1 22:01:02 12° S 22:05:51 40° ESE 22:11:05 10° NE
MetOp-A 4.1 22:02:23 16° SSE 22:06:46 86° ENE 22:12:10 10° NNW
Cosmos 405 4.4 22:04:22 10° NNW 22:07:38 35° W 22:10:52 10° SSW
COSMOS 2487 2.4 22:10:53 17° S 22:13:29 67° ESE 22:17:03 10° NNE
Terra 3.2 22:12:17 18° ESE 22:14:27 25° ENE 22:18:17 10° NNE
Cosmos 1437 Rocket 3.2 22:10:41 10° NNW 22:14:29 58° W 22:17:17 17° S
SL-8 Rocket 4.2 22:08:53 10° N 22:15:03 55° E 22:18:59 23° SSE
Cosmos 1452 Rocket 3.9 22:11:51 10° N 22:17:00 51° ENE 22:19:50 25° SE
Cosmos 2154 Rocket 4.4 22:12:44 10° NNW 22:19:02 64° W 22:25:08 11° S
TELKOM 3 3.6 22:17:27 10° NW 22:19:49 62° NNE 22:20:41 38° E
Cosmos 2228 3.0 22:16:20 10° N 22:20:37 64° E 22:22:37 30° SSE
SPOT 5 2.5 22:18:47 25° SSE 22:21:16 86° ENE 22:25:40 10° NNW
Cosmos 2366 rocket 4.4 22:15:27 10° N 22:21:20 45° ENE 22:24:34 25° SE
NOSS 8 (H) 4.2 22:18:53 10° SSW 22:22:15 73° ESE 22:25:48 10° NE
Cosmos 921 Rocket 3.1 22:17:52 10° NNW 22:22:21 81° WSW 22:24:47 26° S
SPOT 1/Viking Rocket 3.6 22:20:35 25° SSE 22:23:33 65° ENE 22:28:40 10° N
Cosmos 1066 Rocket 4.3 22:20:34 21° SSE 22:24:05 56° E 22:29:37 10° NNE
ERS-1 Rocket 3.8 22:21:27 12° S 22:25:49 46° W 22:30:40 10° NNW
Iridium 43 3.9 22:23:38 10° N 22:25:28 50° NE 22:25:28 50° NE
Cosmos 1515 4.2 22:25:11 14° SSW 22:28:20 58° W 22:32:07 10° N
Cosmos 1892 Rocket 4.2 22:32:14 12° SSW 22:36:18 56° W 22:40:40 10° N
SL-24 DEB 4.4 22:34:54 23° S 22:37:42 71° W 22:42:21 10° N
Cosmos 1980 Rocket 3.0 22:33:11 10° N 22:38:28 39° ENE 22:41:05 25° ESE
Cosmos 1602 Rocket 3.7 22:40:41 40° SE 22:41:51 53° E 22:46:04 10° NNE
ARGOS 3.5 22:39:41 22° S 22:43:11 60° W 22:48:34 10° NNW
Cosmos 1959 Rocket 4.5 22:37:27 10° N 22:43:50 77° E 22:47:14 30° SSE
ISS -0.9 22:41:28 10° WNW 22:43:58 20° NNW 22:46:28 10° NNE
Cosmos 468 4.5 22:41:30 27° S 22:44:17 64° ESE 22:49:31 10° NNE
SL-08 RB Rocket 4.0 22:44:22 29° S 22:46:31 62° W 22:50:58 10° NNW
Cosmos 2322 Rocket 4.1 22:45:11 10° N 22:49:15 20° NE 22:52:24 13° E
OAO 2 Rocket 4.4 22:45:11 10° WSW 22:49:17 26° SSW 22:49:22 26° SSW
Cosmos 1766 3.7 22:46:55 10° N 22:50:41 44° ENE 22:51:05 43° E
USA 229 DEB 4.2 22:44:33 10° NNW 22:51:34 56° NE 22:55:40 26° ESE
USA 229 4.2 22:44:40 10° NNW 22:51:40 55° NE 22:55:46 26° ESE
deb Chang Zheng 4 3.9 22:49:58 10° NNE 22:54:04 43° E 22:54:23 42° ESE
CZ-3A R/B 2.5 22:53:42 10° W 22:55:14 19° WNW 22:55:14 19° WNW
Meteor 2-14 Rocket 4.5 22:50:17 10° N 22:56:19 65° E 22:58:47 36° SSE
Timation 2 Rocket 3.9 22:52:16 22° S 22:56:30 68° ESE 23:02:37 10° NNE
SL-08 R/B 4.4 22:51:51 10° N 22:58:00 86° E 23:00:52 34° S
Cosmos 1809 Rocket 4.4 22:53:46 10° N 22:59:53 86° W 23:02:48 33° S
Lacrosse 5 rocket 3.9 22:57:13 10° NNW 23:00:35 19° NNE 23:03:57 10° ENE
Cosmos 2218 Rocket 4.0 22:57:11 10° N 23:03:20 76° W 23:06:29 31° S
Cosmos 158 Rocket 4.0 23:02:36 41° SSE 23:04:15 62° ESE 23:09:35 10° NNE
CARTOSAT-1 3.4 23:07:09 58° SSE 23:07:58 83° ENE 23:12:19 10° N
H-2A R/B 2.6 23:09:14 31° SSW 23:11:17 50° W 23:16:12 10° NNW
Cosmos 2082 Rocket 2.9 23:09:02 10° SW 23:14:33 52° WNW 23:20:06 10° NNE
CZ-4B R/B 3.7 23:10:18 10° NNE 23:15:17 51° E 23:16:02 47° SE
Meteor 2-16 Rocket 4.4 23:12:14 10° N 23:18:24 85° E 23:20:36 43° SSE
CZ-4 R/B 3.9 23:14:17 10° NNE 23:19:18 67° ESE 23:20:15 54° SSE
Cosmos 1805 3.5 23:17:08 10° N 23:20:47 54° ENE 23:20:47 54° ENE
Cosmos 1758 4.0 23:17:35 10° N 23:21:12 42° ENE 23:21:12 42° ENE
TRAILBLAZER 4.5 23:17:04 10° NNW 23:21:41 85° NE 23:22:19 66° SE
Meteor 1-4 Rocket 3.9 23:19:58 10° NNW 23:23:09 31° W 23:23:30 30° WSW
Meteor 1-22 Rocket 4.4 23:19:56 10° NNW 23:25:09 59° W 23:26:59 39° SSW
IGS 5A 3.5 23:25:25 60° SW 23:25:51 65° W 23:30:00 10° NNW
Nadezhda 3 Rocket 4.0 23:27:58 44° SSE 23:30:04 74° E 23:36:26 10° N
Cosmos 1758 Rocket 4.2 23:30:38 40° ENE 23:30:38 40° ENE 23:34:18 10° NNE
H-2A R/B 2.5 23:32:00 50° SW 23:32:43 57° W 23:37:12 10° NNW
Cosmos 1697 Rocket 3.3 23:28:24 10° NW 23:33:44 46° WSW 23:35:16 37° SSW
ATLAS CENTAUR R/B 2.8 23:31:18 10° N 23:34:21 24° NE 23:34:34 24° NE
SL-19 R/B 4.2 23:29:29 10° N 23:34:48 72° WNW 23:36:43 39° SW
Cosmos 1812 Rocket 4.0 23:30:58 10° NNW 23:35:21 54° W 23:36:00 49° SW
Tiangong 2 3.3 23:35:04 10° WNW 23:36:17 21° W 23:36:17 21° W
Cosmos 1269 Rocket 4.3 23:36:00 33° SW 23:38:19 64° WNW 23:43:36 10° NNE
Cosmos 2360 4.1 23:32:56 10° NNW 23:38:41 86° WSW 23:39:55 57° SSE
SL-16 R/B 2.9 23:36:39 10° NNW 23:42:06 45° ENE 23:43:34 37° E
Iridium 2 4.1 23:38:42 10° NNW 23:42:13 56° WNW 23:42:13 56° WNW
Cosmos 1821 Rocket 4.1 23:38:46 10° N 23:45:03 66° E 23:46:37 50° SE
CZ-4C R/B 3.7 23:48:47 54° N 23:48:47 54° N 23:51:41 10° NNW
Cosmos 1842 3.9 23:48:56 47° W 23:49:02 47° W 23:52:52 10° N
Cosmos 389 Rocket 3.5 23:45:45 10° N 23:48:14 44° N 23:48:14 44° N
Cosmos 1833 Rocket 4.4 23:44:57 10° WSW 23:49:51 30° NW 23:54:48 10° N
Cosmos 972 Rocket 4.0 23:46:13 10° N 23:51:21 59° ENE 23:51:48 56° E
Cosmos 1331 Rocket 4.1 23:46:37 10° NNW 23:51:45 61° ENE 23:52:20 57° E
Terra 2.8 23:51:09 33° WSW 23:51:59 36° W 23:56:23 10° NNW
Cosmos 1271 Rocket 3.7 23:49:06 10° NNW 23:52:36 40° W 23:52:36 40° W
Cosmos 1110 Rocket 3.9 23:49:25 10° NNW 23:54:41 75° ENE 23:55:14 67° ESE
BREEZE-M DEB (TANK) 3.5 23:56:13 34° NE 23:56:13 34° NE 23:59:42 10° ENE
